Location: Albany
(35.0170°S, 117.8920°E)
Time: 03:17:09
(UTC+08:00)

Vanguard 1 - Pass Details

Date: 03 February 2021
Orbit: 649 x 3833 km, 34.2° (Epoch: 26 February)

Event Time Altitude Azimuth Distance (km) Brightness Sun altitude
Rises 22:17:09 0° 298° (WNW) 6,598 14.4 -30.7°
Reaches altitude 10° 22:22:17 10° 300° (WNW) 5,081 13.7 -31.3°
Enters shadow 22:33:25 56° 339° (NNW) 1,856 11.1 -32.5°
Maximum altitude 22:34:58 62° 16° (NNE) 1,643 - -32.7°
Drops below altitude 10° 22:41:47 10° 96° (E) 2,843 - -33.4°
Sets 22:43:54 0° 99° (E) 3,572 - -33.6°
